{"data":{"norad_id":57288,"epoch":"2026-05-25T04:13:00.947424Z","epoch_age_seconds":53759,"freshness":"FRESH","line1":"1 57288U 23095A   26145.17570541  .00000054  00000+0  71665-4 0  9994","line2":"2 57288  86.5046  12.7411 0015927 253.9426 105.9963 13.39540612140677","mean_motion":13.39540612,"eccentricity":0.0015927,"inclination_deg":86.5046,"raan_deg":12.7411,"arg_perigee_deg":253.9426,"mean_anomaly_deg":105.9963,"bstar":7.1665e-5,"rev_number":14067,"period_min":107.49954029763,"perigee_km":1099.0630303584,"apogee_km":1122.9188985764,"semimajor_km":7489.1279644674,"source":"CELESTRAK","updated_at":"2026-05-25T13:37:59.987629Z"}}